Weather History for LDPL - October, 2013

Change the Weather History Date:

Thursday, October 3, 2013

  Actual Average Record
Temperature  
Mean Temperature 56 °F -  
Max Temperature 61 °F - - ()
Min Temperature 50 °F - - ()
Degree Days  
Heating Degree Days 10    
Growing Degree Days 6 (Base 50)    
Moisture  
Dew Point 40 °F    
Average Humidity 54    
Maximum Humidity 67    
Minimum Humidity 34    
Precipitation  
Precipitation 0.00 in - - ()
Sea Level Pressure  
Sea Level Pressure 30.28 in    
Wind  
Wind Speed 12 mph ()    
Max Wind Speed 18 mph    
Max Gust Speed -    
Visibility 10.2 miles    
Events      
T = Trace of Precipitation, MM = Missing Value Source: Averaged Metar Reports

Daily Weather History Graph

Daily Weather History Graph

Search for Another Location

Airport or City:

Trip Planner

Search our weather history database for the weather conditions in past years. The results will help you decide how hot, cold, wet, or windy it might be!

Date:

Astronomy

Oct. 03, 2013 Rise Set
Actual Time 7:04 AM CEST 6:41 PM CEST
Civil Twilight 6:35 AM CEST 7:10 PM CEST
Nautical Twilight 6:01 AM CEST 7:44 PM CEST
Astronomical Twilight 5:27 AM CEST 8:18 PM CEST
Moon 5:17 AM CEST (10/3) 5:41 PM CEST (10/3)
Length of Visible Light 12h 34m
Length of Day
11h 36m
Waning Crescent, 3% of the Moon is Illuminated
Oct 3
Waning Crescent
Oct 5
New
Oct 12
First Quarter
Oct 19
Full
Oct 27
Last Quarter

Hourly Weather History & Observations

Time (CEST) Temp. Dew Point Humidity Pressure Visibility Wind Dir Wind Speed Gust Speed Precip Events Conditions
12:00 AM 55.4 °F 41.0 °F 58% 30.21 in - ENE 13.8 mph - N/A   Clear
12:30 AM 55.4 °F 41.0 °F 58% 30.21 in - ENE 13.8 mph - N/A   Clear
1:00 AM 55.4 °F 41.0 °F 58% 30.21 in - ENE 15.0 mph - N/A   Clear
1:30 AM 55.4 °F 41.0 °F 58% 30.21 in - ENE 16.1 mph - N/A   Clear
2:00 AM 54 °F 40 °F 49% 30.24 in 25 mi ENE 15.7 mph - -  
2:00 AM 53.6 °F 41.0 °F 62% 30.21 in - ENE 15.0 mph - N/A   Clear
2:30 AM 53.6 °F 41.0 °F 62% 30.21 in 6.2 mi ENE 16.1 mph - N/A   Partly Cloudy
3:00 AM 53.6 °F 41.0 °F 62% 30.21 in 6.2 mi ENE 16.1 mph - N/A   Partly Cloudy
3:30 AM 53.6 °F 41.0 °F 62% 30.21 in - East 16.1 mph - N/A   Clear
4:00 AM 53.6 °F 41.0 °F 62% 30.21 in 6.2 mi ENE 15.0 mph - N/A   Partly Cloudy
4:30 AM 53.6 °F 41.0 °F 62% 30.21 in 6.2 mi ENE 12.7 mph - N/A   Partly Cloudy
5:00 AM 54 °F 40 °F 49% 30.25 in 25 mi East 15.7 mph - -   Mostly Cloudy
5:00 AM 53.6 °F 41.0 °F 62% 30.24 in 6.2 mi East 16.1 mph - N/A   Mostly Cloudy
5:30 AM 53.6 °F 41.0 °F 62% 30.24 in 6.2 mi ENE 12.7 mph - N/A   Mostly Cloudy
6:00 AM 53 °F 41 °F 52% 30.25 in 25 mi ENE 11.2 mph - -   Partly Cloudy
6:00 AM 53.6 °F 41.0 °F 62% 30.24 in 6.2 mi ENE 10.4 mph - N/A   Scattered Clouds
6:30 AM 51.8 °F 41.0 °F 67% 30.24 in 6.2 mi ENE 10.4 mph - N/A   Partly Cloudy
7:00 AM 52 °F 40 °F 52% 30.26 in 19 mi ENE 11.2 mph - -   Scattered Clouds
7:00 AM 51.8 °F 39.2 °F 62% 30.24 in 6.2 mi ENE 11.5 mph - N/A   Partly Cloudy
7:30 AM 51.8 °F 39.2 °F 62% 30.24 in - ENE 11.5 mph - N/A   Clear
8:00 AM 51.8 °F 39.2 °F 62% 30.27 in 6.2 mi ENE 8.1 mph - N/A   Partly Cloudy
8:30 AM 53.6 °F 41.0 °F 62% 30.27 in - ENE 9.2 mph - N/A   Clear
9:00 AM 55.4 °F 41.0 °F 58% 30.27 in 6.2 mi ENE 13.8 mph - N/A   Partly Cloudy
9:30 AM 57.2 °F 41.0 °F 55% 30.27 in 6.2 mi ENE 12.7 mph - N/A   Partly Cloudy
10:00 AM 57.2 °F 39.2 °F 51% 30.30 in 6.2 mi ENE 15.0 mph - N/A   Partly Cloudy
10:30 AM 59.0 °F 41.0 °F 51% 30.30 in - ENE 16.1 mph - N/A   Clear
11:00 AM 58 °F 40 °F 40% 30.32 in 19 mi ENE 17.9 mph - -  
11:00 AM 59.0 °F 41.0 °F 51% 30.30 in - ENE 18.4 mph - N/A   Clear
11:30 AM 59.0 °F 41.0 °F 51% 30.30 in - East 16.1 mph - N/A   Clear
12:00 PM 59.0 °F 39.2 °F 48% 30.30 in - East 17.3 mph - N/A   Clear
12:30 PM 59.0 °F 41.0 °F 51% 30.30 in - East 15.0 mph - N/A   Clear
1:00 PM 60.8 °F 39.2 °F 45% 30.30 in - East 13.8 mph - N/A   Clear
1:30 PM 60.8 °F 41.0 °F 48% 30.30 in - ENE 12.7 mph - N/A   Clear
2:00 PM 61 °F 42 °F 37% 30.31 in 19 mi East 13.4 mph - -  
2:00 PM 60.8 °F 39.2 °F 45% 30.30 in - East 13.8 mph - N/A   Clear
2:30 PM 60.8 °F 41.0 °F 48% 30.30 in - East 12.7 mph - N/A   Clear
3:00 PM 60.8 °F 39.2 °F 45% 30.30 in - East 12.7 mph - N/A   Clear
3:30 PM 60.8 °F 39.2 °F 45% 30.30 in - East 11.5 mph - N/A   Clear
4:00 PM 60.8 °F 39.2 °F 45% 30.30 in - East 13.8 mph - N/A   Clear
4:30 PM 60.8 °F 39.2 °F 45% 30.27 in - East 13.8 mph - N/A   Clear
5:00 PM 60 °F 39 °F 34% 30.30 in 19 mi East 13.4 mph - -   Clear
5:00 PM 59.0 °F 39.2 °F 48% 30.30 in - East 12.7 mph - N/A   Clear
5:30 PM 59.0 °F 37.4 °F 45% 30.30 in - ENE 12.7 mph - N/A   Clear
6:00 PM 57.2 °F 37.4 °F 48% 30.30 in - ENE 11.5 mph - N/A   Clear
6:30 PM 53.6 °F 37.4 °F 54% 30.30 in - ENE 9.2 mph - N/A   Clear
7:00 PM 51.8 °F 37.4 °F 58% 30.30 in - ENE 9.2 mph - N/A   Clear
7:30 PM 51.8 °F 37.4 °F 58% 30.30 in - ENE 9.2 mph - N/A   Clear
8:00 PM 51 °F 37 °F 48% 30.34 in 19 mi ENE 8.9 mph - -  
8:00 PM 51.8 °F 37.4 °F 58% 30.33 in - ENE 9.2 mph - N/A   Clear
8:30 PM 50.0 °F 37.4 °F 62% 30.33 in - ENE 11.5 mph - N/A   Clear
9:00 PM 51.8 °F 37.4 °F 58% 30.33 in - ENE 10.4 mph - N/A   Clear
9:30 PM 50.0 °F 37.4 °F 62% 30.33 in - ENE 10.4 mph - N/A   Clear
10:00 PM 51.8 °F 37.4 °F 58% 30.33 in - ENE 12.7 mph - N/A   Clear
10:30 PM 50.0 °F 37.4 °F 62% 30.33 in - ENE 10.4 mph - N/A   Clear
11:00 PM 50 °F 37 °F 50% 30.35 in 19 mi Calm Calm - -  
11:00 PM 50.0 °F 37.4 °F 62% 30.33 in - ENE 10.4 mph - N/A   Clear
11:30 PM 50.0 °F 37.4 °F 62% 30.33 in - ENE 6.9 mph - N/A   Clear